IRNSS-1F

Last updated on Sun Oct 06 2024 00:02:40 GMT+0000 (Coordinated Universal Time)

1 41384U 16015A 24279.54732229 .00000171 00000+0 00000+0 0 9998 2 41384 3.8228 113.8734 0020778 176.5205 313.7578 1.00272420 31457
UTC large
Height (km)
Speed (km/s)
/
Latitude / Longitude
Inclination (degrees)
Orbital Period (minutes)
Azimuth
Elevation
Range (km)
Doppler Factor

Next 0 passes for location: London (51.5072 / 0.1276)

Sorry there are no passes over London.